| time (UTC) | temp F | wind direction | speed MPH | gust MPH | rain 1hr in | rain 24hr in | rain mn in | humidity % | barometer mb |
| 20260905234536 | 65 | 309 | 0.0 | 4.0 | 0.00 | 0.00 | 0.00 | 86 | 1012.5 |
| 20260905233030 | 65 | 21 | 0.0 | 3.0 | 0.00 | 0.00 | 0.00 | 85 | 1012.1 |
| 20260905231529 | 66 | 323 | 1.0 | 4.0 | 0.00 | 0.00 | 0.00 | 84 | 1012.1 |
| 20260905230028 | 66 | 13 | 1.0 | 5.0 | 0.00 | 0.00 | 0.00 | 83 | 1012.0 |
| 20260905224534 | 66 | 331 | 1.0 | 4.0 | 0.00 | 0.00 | 0.00 | 83 | 1012.1 |
| 20260905223032 | 66 | 294 | 0.0 | 4.0 | 0.00 | 0.00 | 0.00 | 82 | 1012.0 |
| 20260905221524 | 67 | 360 | 0.0 | 5.0 | 0.00 | 0.00 | 0.00 | 81 | 1011.8 |
| 20260905220024 | 67 | 294 | 1.0 | 5.0 | 0.00 | 0.00 | 0.00 | 81 | 1011.7 |
| 20260905214523 | 67 | 313 | 0.0 | 4.0 | 0.00 | 0.00 | 0.00 | 81 | 1011.7 |
| 20260905213022 | 67 | 324 | 2.0 | 6.0 | 0.00 | 0.00 | 0.00 | 82 | 1011.7 |
| 20260905211523 | 67 | 56 | 0.0 | 3.0 | 0.00 | 0.00 | 0.00 | 81 | 1011.5 |
| 20260905210020 | 67 | 294 | 1.0 | 7.0 | 0.00 | 0.00 | 0.00 | 80 | 1011.5 |
| 20260905204519 | 67 | 242 | 0.0 | 5.0 | 0.00 | 0.00 | 0.00 | 80 | 1011.3 |
| 20260905203020 | 67 | 329 | 1.0 | 6.0 | 0.00 | 0.00 | 0.00 | 81 | 1011.2 |
| 20260905201521 | 68 | 323 | 2.0 | 8.0 | 0.00 | 0.00 | 0.00 | 81 | 1011.2 |
| 20260905200018 | 68 | 319 | 1.0 | 9.0 | 0.00 | 0.00 | 0.00 | 80 | 1011.1 |
| 20260905194518 | 68 | 355 | 2.0 | 10.0 | 0.00 | 0.00 | 0.00 | 80 | 1011.2 |
| 20260905193021 | 68 | 355 | 2.0 | 12.0 | 0.00 | 0.00 | 0.00 | 81 | 1011.1 |
| 20260905191516 | 67 | 319 | 0.0 | 1.0 | 0.00 | 0.00 | 0.00 | 87 | 1011.1 |
| 20260905190037 | 67 | 320 | 0.0 | 1.0 | 0.00 | 0.00 | 0.00 | 85 | 1011.1 |
| 20260905184514 | 67 | 273 | 0.0 | 7.0 | 0.00 | 0.00 | 0.00 | 83 | 1011.2 |
| 20260905183016 | 68 | 295 | 1.0 | 10.0 | 0.00 | 0.00 | 0.00 | 80 | 1011.0 |
| 20260905181517 | 68 | 169 | 0.0 | 9.0 | 0.00 | 0.00 | 0.00 | 80 | 1011.0 |
| 20260905180019 | 68 | 334 | 1.0 | 6.0 | 0.00 | 0.00 | 0.00 | 80 | 1011.0 |
| 20260905174510 | 68 | 294 | 3.0 | 7.0 | 0.00 | 0.00 | 0.00 | 80 | 1010.9 |
| 20260905173009 | 68 | 245 | 1.0 | 10.0 | 0.00 | 0.00 | 0.00 | 82 | 1010.9 |
| 20260905171508 | 67 | 355 | 2.0 | 8.0 | 0.00 | 0.00 | 0.00 | 83 | 1010.9 |
| 20260905170006 | 67 | 5 | 1.0 | 6.0 | 0.00 | 0.00 | 0.00 | 83 | 1011.0 |
| 20260905164505 | 67 | 259 | 1.0 | 8.0 | 0.00 | 0.00 | 0.00 | 84 | 1011.0 |
| 20260905163005 | 66 | 293 | 1.0 | 10.0 | 0.00 | 0.00 | 0.00 | 85 | 1011.2 |
| 20260905161503 | 66 | 62 | 1.0 | 9.0 | 0.00 | 0.00 | 0.00 | 84 | 1011.3 |
| 20260905160001 | 66 | 313 | 2.0 | 8.0 | 0.00 | 0.00 | 0.00 | 85 | 1011.2 |
| 20260905154502 | 66 | 355 | 1.0 | 8.0 | 0.00 | 0.00 | 0.00 | 86 | 1011.3 |
| 20260905153111 | 66 | 350 | 0.0 | 11.0 | 0.00 | 0.00 | 0.00 | 86 | 1011.4 |
| 20260905151558 | 65 | 34 | 1.0 | 9.0 | 0.00 | 0.00 | 0.00 | 88 | 1011.4 |
| 20260905150055 | 64 | 321 | 0.0 | 6.0 | 0.00 | 0.00 | 0.00 | 89 | 1011.4 |
| 20260905144555 | 64 | 319 | 1.0 | 6.0 | 0.00 | 0.00 | 0.00 | 89 | 1011.2 |
| 20260905143054 | 64 | 348 | 4.0 | 7.0 | 0.00 | 0.00 | 0.00 | 89 | 1011.3 |
| 20260905141556 | 63 | 329 | 2.0 | 6.0 | 0.00 | 0.00 | 0.00 | 90 | 1011.4 |
| 20260905134548 | 63 | 51 | 1.0 | 9.0 | 0.00 | 0.00 | 0.00 | 93 | 1011.3 |
| 20260905133047 | 62 | 273 | 1.0 | 6.0 | 0.00 | 0.00 | 0.00 | 93 | 1011.3 |
| 20260905131559 | 61 | 305 | 0.0 | 5.0 | 0.00 | 0.00 | 0.00 | 93 | 1011.1 |
| 20260905130049 | 61 | 49 | 0.0 | 3.0 | 0.00 | 0.00 | 0.00 | 93 | 1011.1 |
| 20260905124544 | 60 | 5 | 1.0 | 6.0 | 0.00 | 0.00 | 0.00 | 93 | 1011.0 |
| 20260905123043 | 60 | 355 | 0.0 | 2.0 | 0.00 | 0.00 | 0.00 | 93 | 1011.1 |
| 20260905121542 | 59 | 294 | 0.0 | 1.0 | 0.00 | 0.00 | 0.00 | 93 | 1010.9 |
| 20260905120042 | 59 | 294 | 0.0 | 0.0 | 0.00 | 0.00 | 0.00 | 93 | 1010.8 |
| 20260905114540 | 58 | 324 | 0.0 | 1.0 | 0.00 | 0.00 | 0.00 | 93 | 1010.8 |
| 20260905113038 | 58 | 324 | 0.0 | 0.0 | 0.00 | 0.00 | 0.00 | 93 | 1010.8 |
| 20260905111600 | 58 | 324 | 0.0 | 0.0 | 0.00 | 0.00 | 0.00 | 93 | 1010.6 |
| 20260905110036 | 58 | 324 | 0.0 | 0.0 | 0.00 | 0.00 | 0.00 | 93 | 1010.4 |
| 20260905104536 | 57 | 324 | 0.0 | 0.0 | 0.00 | 0.00 | 0.00 | 93 | 1010.3 |
| 20260905103035 | 57 | 324 | 0.0 | 0.0 | 0.00 | 0.00 | 0.00 | 93 | 1010.3 |
| 20260905101535 | 57 | 324 | 0.0 | 0.0 | 0.00 | 0.00 | 0.00 | 93 | 1010.3 |
| 20260905100034 | 57 | 324 | 0.0 | 0.0 | 0.00 | 0.00 | 0.00 | 92 | 1010.2 |
| 20260905094533 | 56 | 324 | 0.0 | 0.0 | 0.00 | 0.00 | 0.00 | 92 | 1010.2 |
| 20260905093036 | 56 | 324 | 0.0 | 0.0 | 0.00 | 0.00 | 0.00 | 92 | 1010.0 |
| 20260905091532 | 56 | 324 | 0.0 | 0.0 | 0.00 | 0.00 | 0.00 | 91 | 1010.0 |
| 20260905090031 | 56 | 324 | 0.0 | 0.0 | 0.00 | 0.00 | 0.00 | 91 | 1009.9 |
| 20260905084531 | 56 | 324 | 0.0 | 0.0 | 0.00 | 0.00 | 0.00 | 91 | 1009.9 |
| 20260905083028 | 56 | 324 | 0.0 | 0.0 | 0.00 | 0.00 | 0.00 | 91 | 1009.9 |
| 20260905081527 | 57 | 324 | 0.0 | 0.0 | 0.00 | 0.00 | 0.00 | 91 | 1010.0 |
| 20260905080026 | 57 | 324 | 0.0 | 0.0 | 0.00 | 0.00 | 0.00 | 90 | 1010.0 |
| 20260905074525 | 57 | 324 | 0.0 | 0.0 | 0.00 | 0.00 | 0.00 | 90 | 1009.8 |
| 20260905073025 | 58 | 324 | 0.0 | 0.0 | 0.00 | 0.00 | 0.00 | 90 | 1009.7 |
| 20260905071536 | 58 | 324 | 0.0 | 0.0 | 0.00 | 0.00 | 0.00 | 90 | 1009.8 |
| 20260905070018 | 59 | 324 | 0.0 | 0.0 | 0.00 | 0.00 | 0.00 | 90 | 1010.0 |
| 20260905064517 | 59 | 324 | 0.0 | 0.0 | 0.00 | 0.00 | 0.00 | 89 | 1010.1 |
| 20260905063014 | 60 | 324 | 0.0 | 0.0 | 0.00 | 0.00 | 0.00 | 88 | 1010.1 |
| 20260905061512 | 60 | 324 | 0.0 | 0.0 | 0.00 | 0.00 | 0.00 | 88 | 1010.3 |
| 20260905060011 | 60 | 324 | 0.0 | 0.0 | 0.00 | 0.00 | 0.00 | 88 | 1010.4 |
| 20260905054527 | 61 | 324 | 0.0 | 0.0 | 0.00 | 0.00 | 0.00 | 88 | 1010.2 |
| 20260905053007 | 61 | 324 | 0.0 | 0.0 | 0.00 | 0.00 | 0.00 | 88 | 1010.3 |
| 20260905051506 | 62 | 324 | 0.0 | 0.0 | 0.00 | 0.00 | 0.00 | 87 | 1010.2 |
| 20260905050005 | 62 | 324 | 0.0 | 0.0 | 0.00 | 0.00 | 0.00 | 87 | 1010.3 |
| 20260905044502 | 62 | 324 | 0.0 | 0.0 | 0.00 | 0.00 | 0.00 | 86 | 1010.3 |
| 20260905043100 | 63 | 324 | 0.0 | 0.0 | 0.00 | 0.00 | 0.00 | 86 | 1010.5 |
| 20260905041556 | 63 | 324 | 0.0 | 0.0 | 0.00 | 0.00 | 0.00 | 85 | 1010.6 |
| 20260905040055 | 64 | 324 | 0.0 | 0.0 | 0.00 | 0.00 | 0.00 | 83 | 1010.5 |
| 20260905034555 | 64 | 324 | 0.0 | 0.0 | 0.00 | 0.00 | 0.00 | 82 | 1010.5 |
| 20260905033101 | 65 | 324 | 0.0 | 0.0 | 0.00 | 0.00 | 0.00 | 82 | 1010.4 |
| 20260905031554 | 65 | 324 | 0.0 | 0.0 | 0.00 | 0.00 | 0.00 | 82 | 1010.1 |
| 20260905030053 | 66 | 324 | 0.0 | 0.0 | 0.00 | 0.00 | 0.00 | 81 | 1010.4 |
| 20260905024604 | 66 | 324 | 0.0 | 0.0 | 0.00 | 0.00 | 0.00 | 80 | 1010.4 |
| 20260905023058 | 66 | 324 | 0.0 | 2.0 | 0.00 | 0.00 | 0.00 | 80 | 1010.4 |
| 20260905021552 | 66 | 325 | 0.0 | 1.0 | 0.00 | 0.00 | 0.00 | 79 | 1010.6 |
| 20260905020104 | 66 | 324 | 0.0 | 0.0 | 0.00 | 0.00 | 0.00 | 79 | 1010.7 |
| 20260905014553 | 67 | 324 | 0.0 | 2.0 | 0.00 | 0.00 | 0.00 | 79 | 1010.6 |
| 20260905013051 | 67 | 324 | 0.0 | 0.0 | 0.00 | 0.00 | 0.00 | 79 | 1010.7 |
| 20260905011551 | 67 | 324 | 0.0 | 0.0 | 0.00 | 0.00 | 0.00 | 79 | 1010.7 |
| 20260905010049 | 68 | 324 | 0.0 | 1.0 | 0.00 | 0.00 | 0.00 | 78 | 1010.5 |
| 20260905004550 | 68 | 325 | 0.0 | 1.0 | 0.00 | 0.00 | 0.00 | 79 | 1010.6 |
| 20260905003049 | 68 | 327 | 0.0 | 1.0 | 0.00 | 0.00 | 0.00 | 78 | 1010.5 |
| 20260905001548 | 69 | 327 | 0.0 | 3.0 | 0.00 | 0.00 | 0.00 | 78 | 1010.6 |
| 20260905000048 | 69 | 13 | 2.0 | 5.0 | 0.00 | 0.00 | 0.00 | 77 | 1010.4 |